Buckland, AK

11:23 PM AKDT on March 24, 2017 (GMT -0800)
Buckland

Weather History for PABL - June, 2013

Change the Weather History Date:

Sunday, June 9, 2013

  Actual Average (PASK) Record (PASK)
Temperature  
Mean Temperature 47 °F -  
Max Temperature 55 °F 54 °F 69 °F (2003)
Min Temperature 39 °F 38 °F 30 °F (2001)
Degree Days  
Heating Degree Days 18    
Moisture  
Dew Point 37 °F    
Average Humidity 71    
Maximum Humidity 87    
Minimum Humidity 54    
Precipitation  
Precipitation 0.00 in - - ()
Sea Level Pressure  
Sea Level Pressure 30.19 in    
Wind  
Wind Speed 12 mph (South)    
Max Wind Speed 23 mph    
Max Gust Speed 31 mph    
Visibility 10 miles    
Events      
Averages and records for this station are not official NWS values.
T = Trace of Precipitation, MM = Missing Value Source: NWS Daily Summary

Daily Weather History Graph

Daily Weather History Graph

Search for Another Location

Airport or City:

Trip Planner

Search our weather history database for the weather conditions in past years. The results will help you decide how hot, cold, wet, or windy it might be!

Date:

Astronomy

Jun. 09, 2013 Rise Set
Actual Time 3:17 AM AKDT 2:16 AM AKDT
Civil Twilight Sun does not rise Sun does not rise
Nautical Twilight Sun does not rise Sun does not rise
Astronomical Twilight Sun does not rise Sun does not rise
Moon 5:51 AM AKDT (6/9) 12:55 AM AKDT (6/9)
Length of Visible Light 24h 00m
Length of Day
22h 59m
New Moon, 1% of the Moon is Illuminated
Jun 9
New Moon
Jun 16
First Quarter
Jun 23
Full
Jun 29
Last Quarter
Jul 7
New

Hourly Weather History & Observations

Time (AKDT) Temp. Windchill Dew Point Humidity Pressure Visibility Wind Dir Wind Speed Gust Speed Precip Events Conditions
12:16 AM 41.0 °F 33.9 °F 35.6 °F 81% 30.10 in 10.0 mi South 12.7 mph 24.2 mph N/A   Overcast
12:36 AM 41.0 °F 32.5 °F 35.6 °F 81% 30.10 in 10.0 mi South 17.3 mph 23.0 mph N/A   Overcast
12:56 AM 42.8 °F 34.3 °F 35.6 °F 76% 30.09 in 10.0 mi SSE 19.6 mph 25.3 mph N/A   Overcast
1:16 AM 42.8 °F 35.8 °F 35.6 °F 76% 30.10 in 10.0 mi SSE 13.8 mph 25.3 mph N/A   Overcast
1:36 AM 41.0 °F 33.1 °F 35.6 °F 81% 30.11 in 10.0 mi SE 15.0 mph 18.4 mph N/A   Overcast
1:56 AM 41.0 °F 34.3 °F 35.6 °F 81% 30.12 in 10.0 mi SSE 11.5 mph 18.4 mph N/A   Overcast
2:16 AM 41.0 °F 35.2 °F 35.6 °F 81% 30.13 in 10.0 mi South 9.2 mph - N/A   Overcast
2:36 AM 39.2 °F 33.0 °F 35.6 °F 87% 30.13 in 10.0 mi SSE 9.2 mph - N/A   Overcast
2:56 AM 39.2 °F - 35.6 °F 87% 30.13 in 10.0 mi Calm Calm - N/A   Overcast
3:16 AM 41.0 °F 39.0 °F 35.6 °F 81% 30.13 in 10.0 mi SE 3.5 mph - N/A   Overcast
3:36 AM 41.0 °F - 33.8 °F 76% 30.14 in 10.0 mi Calm Calm - N/A   Overcast
3:56 AM 41.0 °F 34.7 °F 33.8 °F 76% 30.14 in 10.0 mi South 10.4 mph 16.1 mph N/A   Overcast
4:16 AM 41.0 °F 32.2 °F 33.8 °F 76% 30.13 in 10.0 mi SW 18.4 mph 26.5 mph N/A   Overcast
4:36 AM 41.0 °F 32.5 °F 33.8 °F 76% 30.14 in 10.0 mi SW 17.3 mph 25.3 mph N/A   Overcast
4:56 AM 41.0 °F 31.1 °F 33.8 °F 76% 30.12 in 10.0 mi SW 23.0 mph 31.1 mph N/A   Overcast
5:16 AM 41.0 °F 32.2 °F 33.8 °F 76% 30.13 in 10.0 mi SW 18.4 mph 27.6 mph N/A   Overcast
5:36 AM 39.2 °F 32.0 °F 35.6 °F 87% 30.15 in 10.0 mi South 11.5 mph - N/A   Overcast
5:56 AM 39.2 °F 32.0 °F 35.6 °F 87% 30.15 in 10.0 mi South 11.5 mph - N/A   Overcast
6:16 AM 41.0 °F 34.3 °F 35.6 °F 81% 30.15 in 10.0 mi South 11.5 mph - N/A   Overcast
6:36 AM 41.0 °F 34.7 °F 35.6 °F 81% 30.15 in 10.0 mi South 10.4 mph - N/A   Overcast
6:56 AM 41.0 °F 34.3 °F 35.6 °F 81% 30.16 in 10.0 mi South 11.5 mph - N/A   Overcast
7:16 AM 42.8 °F 37.5 °F 35.6 °F 76% 30.16 in 10.0 mi SSW 9.2 mph - N/A   Overcast
7:36 AM 42.8 °F 38.0 °F 35.6 °F 76% 30.17 in 10.0 mi South 8.1 mph - N/A   Overcast
7:56 AM 42.8 °F 38.6 °F 35.6 °F 76% 30.17 in 10.0 mi SW 6.9 mph - N/A   Overcast
8:16 AM 42.8 °F 37.0 °F 35.6 °F 76% 30.17 in 10.0 mi SW 10.4 mph 16.1 mph N/A   Overcast
8:36 AM 42.8 °F 36.2 °F 35.6 °F 76% 30.18 in 10.0 mi South 12.7 mph 17.3 mph N/A   Overcast
8:56 AM 42.8 °F 38.6 °F 35.6 °F 76% 30.18 in 10.0 mi SSE 6.9 mph - N/A   Overcast
9:16 AM 39.2 °F 33.0 °F 35.6 °F 87% 30.19 in 10.0 mi SE 9.2 mph 16.1 mph N/A   Overcast
9:36 AM 41.0 °F 35.2 °F 35.6 °F 81% 30.19 in 10.0 mi ESE 9.2 mph 17.3 mph N/A   Overcast
9:56 AM 41.0 °F 35.2 °F 35.6 °F 81% 30.20 in 10.0 mi SE 9.2 mph - N/A   Overcast
10:16 AM 41.0 °F 33.9 °F 35.6 °F 81% 30.20 in 10.0 mi SE 12.7 mph - N/A   Overcast
10:36 AM 41.0 °F 34.3 °F 35.6 °F 81% 30.20 in 10.0 mi SE 11.5 mph - N/A   Overcast
10:56 AM 42.8 °F 36.6 °F 35.6 °F 76% 30.20 in 10.0 mi SE 11.5 mph - N/A   Overcast
11:16 AM 42.8 °F 38.0 °F 35.6 °F 76% 30.21 in 10.0 mi SSE 8.1 mph - N/A   Overcast
11:56 AM 44.6 °F 41.4 °F 35.6 °F 71% 30.21 in 10.0 mi SSW 5.8 mph - N/A   Overcast
12:16 PM 46.4 °F 41.9 °F 37.4 °F 71% 30.21 in 10.0 mi SSW 9.2 mph - N/A   Overcast
12:36 PM 50.0 °F - 37.4 °F 62% 30.21 in 10.0 mi SW 15.0 mph 18.4 mph N/A   Overcast
12:56 PM 48.2 °F - 37.4 °F 66% 30.21 in 10.0 mi SW 12.7 mph 20.7 mph N/A   Overcast
1:16 PM 50.0 °F - 37.4 °F 62% 30.21 in 10.0 mi SSW 12.7 mph 16.1 mph N/A   Overcast
1:36 PM 50.0 °F - 37.4 °F 62% 30.21 in 10.0 mi SW 11.5 mph 17.3 mph N/A   Overcast
1:56 PM 50.0 °F - 37.4 °F 62% 30.21 in 10.0 mi SSW 6.9 mph 17.3 mph N/A   Overcast
2:16 PM 50.0 °F - 37.4 °F 62% 30.22 in 10.0 mi SW 9.2 mph - N/A   Overcast
2:36 PM 50.0 °F - 37.4 °F 62% 30.22 in 10.0 mi SSW 11.5 mph - N/A   Overcast
2:56 PM 51.8 °F - 37.4 °F 58% 30.21 in 10.0 mi South 8.1 mph - N/A   Overcast
3:16 PM 51.8 °F - 37.4 °F 58% 30.21 in 10.0 mi South 8.1 mph - N/A   Overcast
3:36 PM 51.8 °F - 37.4 °F 58% 30.21 in 10.0 mi South 10.4 mph - N/A   Overcast
3:56 PM 51.8 °F - 37.4 °F 58% 30.21 in 10.0 mi SSE 10.4 mph - N/A   Overcast
4:16 PM 51.8 °F - 39.2 °F 62% 30.20 in 10.0 mi South 12.7 mph 16.1 mph N/A   Overcast
4:36 PM 51.8 °F - 39.2 °F 62% 30.20 in 10.0 mi SE 18.4 mph 26.5 mph N/A   Overcast
4:56 PM 50.0 °F - 37.4 °F 62% 30.20 in 10.0 mi SE 15.0 mph 28.8 mph N/A   Overcast
5:16 PM 50.0 °F - 37.4 °F 62% 30.20 in 10.0 mi SSE 17.3 mph - N/A   Overcast
5:36 PM 50.0 °F - 37.4 °F 62% 30.20 in 10.0 mi SSE 16.1 mph 23.0 mph N/A   Overcast
5:56 PM 50.0 °F - 37.4 °F 62% 30.20 in 10.0 mi SSE 17.3 mph 24.2 mph N/A   Overcast
6:16 PM 51.8 °F - 39.2 °F 62% 30.21 in 10.0 mi SSE 15.0 mph 23.0 mph N/A   Overcast
6:36 PM 53.6 °F - 39.2 °F 58% 30.21 in 10.0 mi South 11.5 mph 26.5 mph N/A   Overcast
6:56 PM 51.8 °F - 37.4 °F 58% 30.21 in 10.0 mi SSW 13.8 mph 18.4 mph N/A   Overcast
7:16 PM 55.4 °F - 39.2 °F 54% 30.21 in 10.0 mi South 13.8 mph 21.9 mph N/A   Overcast
7:36 PM 55.4 °F - 39.2 °F 54% 30.21 in 10.0 mi South 12.7 mph 17.3 mph N/A   Overcast
7:56 PM 53.6 °F - 39.2 °F 58% 30.21 in 10.0 mi South 11.5 mph 17.3 mph N/A   Overcast
8:16 PM 53.6 °F - 39.2 °F 58% 30.22 in 10.0 mi South 11.5 mph - N/A   Mostly Cloudy
8:36 PM 48.2 °F - 37.4 °F 66% 30.22 in 10.0 mi SSE 12.7 mph 18.4 mph N/A   Overcast
8:56 PM 48.2 °F - 37.4 °F 66% 30.23 in 10.0 mi SSE 10.4 mph - N/A   Overcast
9:16 PM 48.2 °F - 37.4 °F 66% 30.23 in 10.0 mi SE 10.4 mph - N/A   Overcast
9:36 PM 46.4 °F 40.7 °F 37.4 °F 71% 30.23 in 10.0 mi SE 12.7 mph - N/A   Overcast
9:56 PM 46.4 °F 41.1 °F 37.4 °F 71% 30.24 in 10.0 mi SE 11.5 mph - N/A   Mostly Cloudy
10:16 PM 46.4 °F 42.9 °F 37.4 °F 71% 30.24 in 10.0 mi SSE 6.9 mph - N/A   Overcast
10:36 PM 46.4 °F - 37.4 °F 71% 30.25 in 10.0 mi Calm Calm - N/A   Overcast
10:56 PM 46.4 °F 42.4 °F 37.4 °F 71% 30.25 in 10.0 mi SE 8.1 mph - N/A   Mostly Cloudy
11:16 PM 46.4 °F 42.9 °F 37.4 °F 71% 30.26 in 10.0 mi SE 6.9 mph - N/A   Partly Cloudy
11:36 PM 44.6 °F 40.2 °F 35.6 °F 71% 30.27 in 10.0 mi SE 8.1 mph - N/A   Scattered Clouds
11:56 PM 42.8 °F 38.6 °F 35.6 °F 76% 30.27 in 10.0 mi ESE 6.9 mph - N/A   Overcast